When you browse on this site, cookies collect data to enhance your experience and personalize the content and advertising you see.
Visit our Privacy Policy to learn more. By continuing to use the site, you agree to this use of cookies and data.
  • In Hungary
  • List of Countries
  • For 7 days
  • Water Temperature
  • Weather Map
  • News
  • Weather Widgets
  • user-avatar
    Login

    Hourly Weather Gutorovschina

    Today, 17 August, Saturday

    Time Temperature Precipitation Wind Pressure Humidity
    00:00 +11°C° 0 mm 4 mps 743 mmHg 84%
    01:00 +11°C° 0 mm 4 mps 743 mmHg 82%
    02:00 +12°C° 0 mm 5 mps 743 mmHg 76%
    03:00 +12°C° 0.1 mm 5 mps 743 mmHg 77%
    04:00 +13°C° 0.1 mm 5 mps 743 mmHg 79%
    05:00 +13°C° 0.1 mm 5 mps 743 mmHg 81%
    06:00 +13°C° 0.1 mm 5 mps 743 mmHg 82%
    07:00 +13°C° 0.1 mm 5 mps 743 mmHg 83%
    08:00 +13°C° 0.1 mm 5 mps 743 mmHg 85%
    09:00 +14°C° 0.1 mm 5 mps 743 mmHg 85%
    10:00 +14°C° 0.1 mm 5 mps 743 mmHg 85%
    11:00 +14°C° 0.1 mm 5 mps 743 mmHg 85%
    12:00 +14°C° 0.4 mm 5 mps 743 mmHg 86%
    13:00 +14°C° 0.4 mm 5 mps 743 mmHg 87%
    14:00 +14°C° 0.4 mm 5 mps 743 mmHg 88%
    15:00 +14°C° 0.7 mm 5 mps 742 mmHg 90%
    16:00 +14°C° 0.7 mm 5 mps 742 mmHg 92%
    17:00 +13°C° 0.7 mm 4 mps 742 mmHg 93%
    18:00 +13°C° 0.6 mm 5 mps 742 mmHg 93%
    19:00 +13°C° 0.6 mm 5 mps 742 mmHg 94%
    20:00 +13°C° 0.6 mm 5 mps 742 mmHg 94%
    21:00 +13°C° 0.2 mm 5 mps 742 mmHg 94%
    22:00 +13°C° 0.2 mm 4 mps 741 mmHg 95%
    23:00 +13°C° 0.2 mm 4 mps 741 mmHg 95%

    Tomorrow, 18 August, Sunday

    Time Temperature Precipitation Wind Pressure Humidity
    00:00 +13°C° 0.5 mm 4 mps 741 mmHg 95%
    01:00 +13°C° 0.5 mm 4 mps 741 mmHg 95%
    02:00 +13°C° 0.5 mm 5 mps 741 mmHg 95%
    03:00 +13°C° 0.2 mm 4 mps 741 mmHg 95%
    04:00 +13°C° 0.2 mm 4 mps 741 mmHg 94%
    05:00 +13°C° 0.2 mm 4 mps 741 mmHg 94%
    06:00 +13°C° 0 mm 4 mps 741 mmHg 93%
    07:00 +14°C° 0 mm 4 mps 741 mmHg 92%
    08:00 +14°C° 0 mm 4 mps 742 mmHg 90%
    09:00 +15°C° 0 mm 4 mps 742 mmHg 86%
    10:00 +18°C° 0 mm 3 mps 742 mmHg 82%
    11:00 +19°C° 0 mm 3 mps 742 mmHg 77%
    12:00 +20°C° 0 mm 3 mps 742 mmHg 73%
    13:00 +21°C° 0 mm 4 mps 742 mmHg 69%
    14:00 +22°C° 0 mm 4 mps 742 mmHg 65%
    15:00 +22°C° 0 mm 3 mps 743 mmHg 67%
    16:00 +21°C° 0 mm 3 mps 743 mmHg 70%
    17:00 +21°C° 0 mm 2 mps 743 mmHg 73%
    18:00 +20°C° 0 mm 2 mps 743 mmHg 77%
    19:00 +18°C° 0 mm 2 mps 744 mmHg 82%
    20:00 +16°C° 0 mm 1 mps 744 mmHg 87%
    21:00 +16°C° 0 mm 1 mps 744 mmHg 86%
    22:00 +15°C° 0 mm 1 mps 744 mmHg 86%
    23:00 +14°C° 0 mm 1 mps 745 mmHg 86%

    Day after tomorrow, 19 August, Monday

    Time Temperature Precipitation Wind Pressure Humidity
    00:00 +14°C° 0 mm 1 mps 745 mmHg 86%
    01:00 +14°C° 0 mm 2 mps 745 mmHg 87%
    02:00 +14°C° 0 mm 2 mps 745 mmHg 87%
    03:00 +14°C° 0 mm 2 mps 745 mmHg 88%
    04:00 +13°C° 0 mm 2 mps 745 mmHg 88%
    05:00 +13°C° 0 mm 2 mps 746 mmHg 89%
    06:00 +15°C° 0 mm 2 mps 746 mmHg 85%
    07:00 +17°C° 0 mm 3 mps 746 mmHg 81%
    08:00 +18°C° 0 mm 3 mps 747 mmHg 78%
    09:00 +20°C° 0 mm 3 mps 747 mmHg 74%
    10:00 +21°C° 0 mm 4 mps 747 mmHg 71%
    11:00 +23°C° 0 mm 4 mps 747 mmHg 67%
    12:00 +25°C° 0 mm 4 mps 747 mmHg 66%
    13:00 +25°C° 0 mm 4 mps 747 mmHg 64%
    14:00 +26°C° 0 mm 4 mps 747 mmHg 62%
    15:00 +26°C° 0 mm 4 mps 747 mmHg 66%
    16:00 +25°C° 0 mm 3 mps 747 mmHg 69%
    17:00 +25°C° 0 mm 3 mps 747 mmHg 73%
    18:00 +22°C° 0 mm 3 mps 747 mmHg 76%
    19:00 +21°C° 0 mm 3 mps 747 mmHg 79%
    20:00 +19°C° 0 mm 3 mps 747 mmHg 82%
    21:00 +19°C° 0 mm 3 mps 747 mmHg 82%
    22:00 +18°C° 0 mm 3 mps 747 mmHg 82%
    23:00 +18°C° 0 mm 3 mps 748 mmHg 83%

    20 August, Tuesday

    Time Temperature Precipitation Wind Pressure Humidity
    00:00 +17°C° 0 mm 3 mps 748 mmHg 82%
    01:00 +17°C° 0 mm 3 mps 748 mmHg 82%
    02:00 +17°C° 0 mm 3 mps 748 mmHg 82%
    03:00 +16°C° 0.1 mm 3 mps 748 mmHg 83%
    04:00 +16°C° 0.1 mm 3 mps 748 mmHg 84%
    05:00 +16°C° 0.1 mm 3 mps 748 mmHg 84%
    06:00 +17°C° 0.1 mm 3 mps 748 mmHg 83%
    07:00 +18°C° 0.1 mm 3 mps 748 mmHg 82%
    08:00 +20°C° 0.1 mm 3 mps 748 mmHg 81%
    09:00 +21°C° 0 mm 3 mps 748 mmHg 77%
    10:00 +23°C° 0 mm 4 mps 748 mmHg 74%
    11:00 +26°C° 0 mm 4 mps 748 mmHg 70%
    12:00 +26°C° 0.3 mm 4 mps 748 mmHg 69%
    13:00 +27°C° 0.3 mm 4 mps 748 mmHg 68%
    14:00 +28°C° 0.3 mm 4 mps 748 mmHg 67%
    15:00 +27°C° 0.4 mm 3 mps 748 mmHg 71%
    16:00 +27°C° 0.4 mm 3 mps 748 mmHg 74%
    17:00 +26°C° 0.4 mm 2 mps 748 mmHg 78%
    18:00 +25°C° 0.3 mm 2 mps 748 mmHg 81%
    19:00 +24°C° 0.3 mm 2 mps 748 mmHg 83%
    20:00 +21°C° 0.3 mm 2 mps 748 mmHg 86%
    21:00 +21°C° 0.3 mm 2 mps 748 mmHg 87%
    22:00 +20°C° 0.3 mm 2 mps 749 mmHg 89%
    23:00 +20°C° 0.3 mm 1 mps 749 mmHg 90%

    21 August, Wednesday

    Time Temperature Precipitation Wind Pressure Humidity
    00:00 +19°C° 0.1 mm 2 mps 749 mmHg 90%
    01:00 +19°C° 0.1 mm 2 mps 749 mmHg 90%
    02:00 +18°C° 0.1 mm 2 mps 749 mmHg 90%
    03:00 +18°C° 0 mm 2 mps 749 mmHg 90%
    04:00 +18°C° 0 mm 2 mps 748 mmHg 89%
    05:00 +18°C° 0 mm 2 mps 748 mmHg 89%
    06:00 +19°C° 0 mm 2 mps 748 mmHg 86%
    07:00 +20°C° 0 mm 2 mps 748 mmHg 82%
    08:00 +23°C° 0 mm 2 mps 749 mmHg 79%
    09:00 +24°C° 0 mm 2 mps 748 mmHg 75%
    10:00 +26°C° 0 mm 2 mps 748 mmHg 70%
    11:00 +27°C° 0 mm 3 mps 748 mmHg 66%
    12:00 +27°C° 0 mm 3 mps 748 mmHg 65%
    13:00 +28°C° 0 mm 3 mps 748 mmHg 64%
    14:00 +28°C° 0 mm 4 mps 747 mmHg 64%
    15:00 +28°C° 0 mm 3 mps 747 mmHg 67%
    16:00 +28°C° 0 mm 3 mps 746 mmHg 70%
    17:00 +27°C° 0 mm 3 mps 746 mmHg 73%
    18:00 +25°C° 0 mm 3 mps 746 mmHg 76%
    19:00 +24°C° 0 mm 3 mps 745 mmHg 78%
    20:00 +21°C° 0 mm 3 mps 745 mmHg 81%
    21:00 +20°C° 0 mm 3 mps 745 mmHg 81%
    22:00 +20°C° 0 mm 3 mps 745 mmHg 81%
    23:00 +19°C° 0 mm 3 mps 745 mmHg 80%

    22 August, Thursday

    Time Temperature Precipitation Wind Pressure Humidity
    00:00 +19°C° 0 mm 3 mps 745 mmHg 82%
    01:00 +18°C° 0 mm 3 mps 745 mmHg 84%
    02:00 +18°C° 0 mm 3 mps 745 mmHg 86%
    03:00 +17°C° 0 mm 4 mps 746 mmHg 87%
    04:00 +16°C° 0 mm 5 mps 746 mmHg 88%
    05:00 +15°C° 0 mm 6 mps 746 mmHg 89%
    06:00 +15°C° 0 mm 6 mps 747 mmHg 87%
    07:00 +15°C° 0 mm 7 mps 748 mmHg 85%
    08:00 +15°C° 0 mm 7 mps 748 mmHg 83%
    09:00 +16°C° 0 mm 7 mps 749 mmHg 81%
    10:00 +16°C° 0 mm 6 mps 749 mmHg 79%
    11:00 +17°C° 0 mm 6 mps 750 mmHg 77%
    12:00 +19°C° 0 mm 6 mps 750 mmHg 74%
    13:00 +20°C° 0 mm 6 mps 750 mmHg 71%
    14:00 +21°C° 0 mm 5 mps 750 mmHg 68%
    15:00 +20°C° 0 mm 5 mps 750 mmHg 69%
    16:00 +20°C° 0 mm 4 mps 750 mmHg 71%
    17:00 +20°C° 0 mm 3 mps 750 mmHg 73%
    18:00 +19°C° 0 mm 3 mps 750 mmHg 77%
    19:00 +17°C° 0 mm 3 mps 751 mmHg 81%
    20:00 +14°C° 0 mm 3 mps 751 mmHg 84%
    21:00 +14°C° 0 mm 3 mps 751 mmHg 85%
    22:00 +13°C° 0 mm 3 mps 751 mmHg 86%
    23:00 +12°C° 0 mm 3 mps 752 mmHg 87%
    Show more